Springfield, IL

10:27 AM CST on December 10, 2019 (GMT -0600)
Capital

Weather History for KSPI - October, 2019

Change the Weather History Date:

Thursday, October 10, 2019

  Actual Average Record
Temperature  
Mean Temperature 63 °F 57 °F  
Max Temperature 68 °F 69 °F 89 °F (1963)
Min Temperature 57 °F 45 °F 26 °F (1964)
Degree Days  
Heating Degree Days 2 9  
Month to date heating degree days 45 77  
Since 1 July heating degree days 46 158  
Cooling Degree Days 0 1  
Month to date cooling degree days 32 12  
Year to date cooling degree days 1309 1111  
Growing Degree Days 12 (Base 50)    
Moisture  
Dew Point 58 °F    
Average Humidity 77    
Maximum Humidity 93    
Minimum Humidity 60    
Precipitation  
Precipitation 0.29 in 0.09 in 2.28 in (2017)
Month to date precipitation 0.50 0.98  
Year to date precipitation 41.05 29.53  
Snow  
Snow 0.00 in 0.00 in 0.00 in ()
Month to date snowfall 0.0 0.0  
Since 1 July snowfall 0.0 0.0  
Since 1 September snowfall 0.0 0.0  
Snow Depth 0.00 in    
Sea Level Pressure  
Sea Level Pressure 29.96 in    
Wind  
Wind Speed 8 mph (SE)    
Max Wind Speed 16 mph    
Max Gust Speed 23 mph    
Visibility 9 miles    
Events Rain    
T = Trace of Precipitation, MM = Missing Value Source: NWS Daily Summary

Daily Weather History Graph

Daily Weather History Graph

Search for Another Location

Airport or City:

Astronomy

Oct. 10, 2019 Rise Set
Actual Time 7:03 AM CDT 6:27 PM CDT
Civil Twilight 6:36 AM CDT 6:54 PM CDT
Nautical Twilight 6:05 AM CDT 7:25 PM CDT
Astronomical Twilight 5:33 AM CDT 7:56 PM CDT
Moon 5:28 PM CDT 3:47 AM CDT
Length of Visible Light 12h 17m
Length of Day
11h 23m
Waxing Gibbous, 91% of the Moon is Illuminated
Oct 10
Waxing Gibbous
Oct 13
Full
Oct 21
Last Quarter
Oct 27
New
Nov 4
First Quarter

Hourly Weather History & Observations

Time (CDT) Temp. Dew Point Humidity Pressure Visibility Wind Dir Wind Speed Gust Speed Precip Events Conditions
12:52 AM 62.1 °F 48.9 °F 62% 30.01 in 10.0 mi SE 8.1 mph - N/A   Clear
1:52 AM 60.1 °F 51.1 °F 72% 30.02 in 10.0 mi ESE 6.9 mph - N/A   Clear
2:52 AM 57.9 °F 51.1 °F 78% 30.02 in 10.0 mi ESE 8.1 mph - N/A   Clear
3:52 AM 61.0 °F 53.1 °F 75% 30.01 in 10.0 mi SE 8.1 mph 17.3 mph N/A   Clear
4:52 AM 61.0 °F 54.0 °F 78% 30.00 in 10.0 mi SE 8.1 mph - N/A   Partly Cloudy
5:52 AM 57.9 °F 53.1 °F 84% 29.99 in 10.0 mi ESE 4.6 mph - N/A   Partly Cloudy
6:52 AM 57.9 °F 54.0 °F 87% 29.99 in 10.0 mi ESE 6.9 mph - N/A   Clear
7:52 AM 59.0 °F 55.0 °F 87% 30.01 in 10.0 mi SE 8.1 mph - N/A   Clear
8:52 AM 60.1 °F 55.9 °F 86% 30.03 in 10.0 mi SE 6.9 mph - N/A   Scattered Clouds
9:52 AM 63.0 °F 55.9 °F 78% 30.02 in 10.0 mi SE 8.1 mph - N/A   Partly Cloudy
10:52 AM 64.0 °F 57.0 °F 78% 30.02 in 10.0 mi SE 8.1 mph - N/A   Mostly Cloudy
11:52 AM 64.0 °F 57.9 °F 80% 30.02 in 7.0 mi SSE 6.9 mph - 0.00 in Rain Light Rain
12:52 PM 63.0 °F 60.1 °F 90% 30.00 in 5.0 mi South 4.6 mph - 0.07 in Rain Light Rain
1:52 PM 64.0 °F 60.1 °F 87% 29.92 in 7.0 mi SSE 12.7 mph - 0.01 in Rain Light Rain
2:52 PM 64.9 °F 61.0 °F 87% 29.91 in 8.0 mi SSE 15.0 mph 20.7 mph 0.01 in Rain Light Rain
3:52 PM 64.9 °F 62.1 °F 90% 29.92 in 7.0 mi SSE 10.4 mph - 0.13 in Rain Light Rain
4:52 PM 66.0 °F 62.1 °F 87% 29.90 in 6.0 mi SE 4.6 mph - 0.06 in Rain Light Rain
5:52 PM 66.0 °F 63.0 °F 90% 29.89 in 9.0 mi ESE 8.1 mph - 0.00 in   Mostly Cloudy
6:52 PM 68.0 °F 64.0 °F 87% 29.90 in 10.0 mi SE 9.2 mph - N/A   Overcast
7:52 PM 66.0 °F 64.0 °F 93% 29.88 in 10.0 mi SE 5.8 mph - N/A   Clear
8:52 PM 66.9 °F 63.0 °F 87% 29.90 in 10.0 mi South 8.1 mph - N/A   Partly Cloudy
9:52 PM 66.9 °F 63.0 °F 87% 29.91 in 10.0 mi SSE 5.8 mph - N/A   Mostly Cloudy
10:52 PM 66.9 °F 64.0 °F 90% 29.88 in 8.0 mi ESE 8.1 mph - 0.00 in   Overcast
11:52 PM 68.0 °F 64.0 °F 87% 29.87 in 10.0 mi South 8.1 mph - N/A   Scattered Clouds